This demonstration page uses our WeatherBlox Daily Observations layout. Learn more.

Left ArrowRight Arrow

38.88101, -77.10428

Hourly Observations for August 29, 2020

Temp ( °F °C ) Dew Point ( °F °C ) Humidity (%) Winds ( mph kmh ) Pressure ( in mb ) Visibility ( mi km ) Precip ( " mm )
12:52 am 00:52 Cloudy with Rain 73 22.8 71 21.7 94 94 W 3 6 29.82 1010 6 9.65604 0.12 3.048
1:52 am 01:52 Mostly Clear with Light Rain 73 22.8 71 21.7 94 94 S 7 11 29.78 1008 10 16.0934 0.1 2.54
2:30 am 02:30 Cloudy 74 23.3 72 22.2 94 94 S 14 22 29.77 1008 10 16.0934 0.02 0.508
2:52 am 02:52 Cloudy 74 23.3 71 21.7 91 91 SSE 10 17 29.74 1007 10 16.0934 0.02 0.508
3:52 am 03:52 Cloudy 73 22.8 71 21.7 94 94 S 6 9 29.72 1007 10 16.0934 0.001 0.001
4:25 am 04:25 Cloudy 73 22.8 71 21.7 94 94 S 8 13 29.73 1007 10 16.0934 0 0
4:52 am 04:52 Cloudy 73 22.8 71 21.7 94 94 S 7 11 29.72 1006 10 16.0934 0 0
4:55 am 04:55 Cloudy 73 22.8 71 21.7 94 94 S 8 13 29.72 1006 10 16.0934 0 0
5:25 am 05:25 Cloudy 74 23.3 72 22.2 94 94 S 7 11 29.72 1006 10 16.0934 0 0
5:38 am 05:38 Cloudy 74 23.3 72 22.2 94 94 S 7 11 29.72 1006 10 16.0934 0 0
5:43 am 05:43 Cloudy 74 23.3 72 22.2 94 94 WSW 6 9 29.72 1006 10 16.0934 0 0
5:52 am 05:52 Cloudy 73 22.8 71 21.7 94 94 SW 7 11 29.71 1006 10 16.0934 0 0
6:15 am 06:15 Cloudy 74 23.3 71 21.7 91 91 SSW 8 13 29.71 1006 10 16.0934 0 0
6:45 am 06:45 Cloudy 74 23.3 72 22.2 94 94 S 7 11 29.7 1006 10 16.0934 0.001 0.001
6:52 am 06:52 Cloudy with Light Rain 74 23.3 72 22.2 94 94 SSW 7 11 29.7 1006 10 16.0934 0.001 0.001
6:57 am 06:57 Cloudy with Light Rain 74 23.3 72 22.2 94 94 SSW 7 11 29.7 1006 10 16.0934 0.001 0.001
7:10 am 07:10 Cloudy 74 23.3 72 22.2 94 94 SSW 8 13 29.7 1006 10 16.0934 0.001 0.001
7:19 am 07:19 Cloudy 74 23.3 72 22.2 94 94 SSW 7 11 29.7 1006 10 16.0934 0.001 0.001
7:48 am 07:48 Cloudy with Light Rain 75 24 73 23 94 94 SSW 5 7 29.69 1005 10 16.0934 0.001 0.001
7:52 am 07:52 Cloudy with Light Rain 75 23.9 73 22.8 94 94 SSW 6 9 29.69 1006 10 16.0934 0.001 0.001
8:52 am 08:52 Cloudy with Rain 77 25 74 23.3 90 90 SW 8 13 29.69 1005 6 9.65604 0.02 0.508
9:04 am 09:04 Cloudy with Light Rain 77 25 74 23.3 90 90 SSW 8 13 29.68 1005 6 9.65604 0.01 0.254
9:16 am 09:16 Cloudy with Light Rain 77 25 75 23.9 94 94 SSW 8 13 29.68 1005 8 12.87472 0.02 0.508
9:28 am 09:28 Cloudy with Light Rain 77 25 75 23.9 94 94 WSW 10 17 29.68 1005 3 4.82802 0.02 0.508
9:30 am 09:30 Cloudy with Heavy Rain 77 25 75 23.9 94 94 WSW 8 13 29.68 1005 1.5 2.41401 0.02 0.508
9:41 am 09:41 Cloudy with Light Rain 77 25 75 23.9 94 94 W 5 7 29.67 1005 2.5 4.02335 0.12 3.048
9:43 am 09:43 Cloudy with Light Rain 77 25 75 23.9 94 94 WSW 5 7 29.67 1005 3 4.82802 0.12 3.048
9:45 am 09:45 Cloudy with Light Rain 77 25 75 23.9 94 94 WSW 3 6 29.67 1005 4 6.43736 0.12 3.048
9:52 am 09:52 Cloudy with Light Rain 77 25 75 23.9 94 94 SSW 5 7 29.67 1005 7 11.26538 0.13 3.302
10:02 am 10:02 Cloudy with Light Rain 78 25.6 76 24.4 93 93 S 6 9 29.66 1004 9 14.48406 0.001 0.001
10:26 am 10:26 Cloudy with Light Rain 78 25.6 76 24.4 93 93 SSW 9 15 29.66 1004 10 16.0934 0.001 0.001
10:52 am 10:52 Cloudy with Light Rain 79 26.1 76 24.4 90 90 SSW 8 13 29.65 1004 10 16.0934 0.01 0.254
10:57 am 10:57 Cloudy with Light Rain 79 26.1 76 24.4 90 90 SSW 8 13 29.65 1004 10 16.0934 0.001 0.001
11:22 am 11:22 Cloudy 79 26.1 76 24.4 90 90 SSW 10 17 29.64 1004 10 16.0934 0.001 0.001
11:36 am 11:36 Cloudy 79 26.1 76 24.4 90 90 SSW 10 17 29.63 1003 10 16.0934 0.001 0.001
11:41 am 11:41 Cloudy 79 26.1 76 24.4 90 90 SSW 12 19 29.63 1003 10 16.0934 0.001 0.001
11:52 am 11:52 Cloudy 79 26.1 76 24.4 90 90 SSW 13 20 29.63 1004 10 16.0934 0.001 0.001
12:52 pm 12:52 Cloudy with Light Rain 81 27.2 76 24.4 85 85 SSW 9 15 29.6 1002 10 16.0934 0.001 0.001
1:17 pm 13:17 Cloudy with Light Rain 81 27.2 76 24.4 85 85 SSW 14 22 29.59 1002 10 16.0934 0.001 0.001
1:36 pm 13:36 Cloudy with Light Rain 80 26.7 74 23.3 82 82 SW 13 20 29.58 1002 9 14.48406 0.001 0.001
1:42 pm 13:42 Cloudy with Light Rain 79 26.1 75 23.9 88 88 WSW 10 17 29.59 1002 5 8.0467 0.01 0.254
1:52 pm 13:52 Cloudy with Heavy Rain 78 25.6 75 23.9 90 90 WSW 9 15 29.59 1002 3 4.82802 0.03 0.762
1:56 pm 13:56 Cloudy with Light Rain 79 26.1 75 23.9 88 88 WSW 8 13 29.59 1002 2.5 4.02335 0.001 0.001
1:58 pm 13:58 Cloudy with Light Rain 78 25.6 75 23.9 90 90 SW 8 13 29.58 1002 3 4.82802 0.001 0.001
2:01 pm 14:01 Cloudy with Heavy Rain 78 25.6 75 23.9 90 90 SW 8 13 29.58 1002 2.5 4.02335 0.01 0.254
2:10 pm 14:10 Cloudy with Light Rain 78 25.6 75 23.9 90 90 WSW 8 13 29.58 1002 3 4.82802 0.04 1.016
2:18 pm 14:18 Cloudy with Light Rain 78 25.6 75 23.9 90 90 WSW 12 19 29.58 1002 5 8.0467 0.04 1.016
2:21 pm 14:21 Cloudy with Heavy Rain 78 25.6 75 23.9 90 90 WSW 12 19 29.58 1002 1.75 2.816345 0.04 1.016
2:29 pm 14:29 Cloudy with Heavy Rain 78 25.6 75 23.9 90 90 W 12 19 29.57 1001 0.75 1.207005 0.12 3.048
2:32 pm 14:32 Cloudy with Rain 78 25.6 75 23.9 90 90 WSW 8 13 29.57 1001 1 1.60934 0.2 5.08
2:38 pm 14:38 Cloudy with Light Rain 78 25.6 75 23.9 90 90 WSW 9 15 29.56 1001 4 6.43736 0.2 5.08
2:42 pm 14:42 Cloudy with Light Rain 79 26.1 76 24.4 90 90 SW 9 15 29.56 1001 10 16.0934 0.2 5.08
2:52 pm 14:52 Mostly Cloudy 80 26.7 77 25 90 90 SSW 10 17 29.55 1001 10 16.0934 0.2 5.08
3:52 pm 15:52 Partly Cloudy 83 28.3 76 24.4 79 79 SSW 7 11 29.53 1000 10 16.0934 0 0
4:52 pm 16:52 Partly Cloudy 85 29.4 75 23.9 72 72 SW 6 9 29.54 1001 10 16.0934 0 0
5:52 pm 17:52 Partly Cloudy 87 30.6 74 23.3 65 65 SW 8 13 29.55 1001 10 16.0934 0 0
6:52 pm 18:52 Partly Cloudy 84 28.9 75 23.9 74 74 SW 12 19 29.56 1001 10 16.0934 0 0
7:52 pm 19:52 Mostly Clear 82 27.8 74 23.3 77 77 W 8 13 29.57 1001 10 16.0934 0 0
8:52 pm 20:52 Mostly Clear 82 27.8 66 18.9 58 58 W 13 20 29.6 1002 10 16.0934 0 0
9:52 pm 21:52 Mostly Clear 82 27.8 65 18.3 56 56 W 6 9 29.63 1003 10 16.0934 0 0
10:52 pm 22:52 Mostly Clear 80 26.7 65 18.3 60 60 W 6 9 29.66 1005 10 16.0934 0 0
11:52 pm 23:52 Mostly Clear 78 25.6 64 17.8 62 62 NNW 9 15 29.69 1006 10 16.0934 0 0

Powered by AerisWeather